Temp
-15 -14 -14 -15 -15 -14 -14 -14 -14 -14 -14 -15 -15 -14 -14 -14 -14 -14 -14 -14 -14 -14 -13 -13 -14 -14 -13 -14 -14 -14 -14 -13 -13 -13 -13 -13 -13 -13 -13 -13 -13 -13 -13 -12
-14 -14 -15 -14 -14 -14 -15 -15 -15 -15 -14 -14 -14 -14 -14 -15 -14 -14 -14 -14 -14 -14 -14 -13 -13 -13 -13 -13 -13 -13 -13 -13 -13 -14 -14 -14 -14 -14 -14 -14 -14 -13 -14 -13
-14 -14 -15 -15 -15 -15 -14 -14 -15 -15 -15 -14 -14 -14 -14 -14 -14 -14 -14 -14 -14 -14 -14 -14 -14 -14 -14 -14 -14 -13 -14 -14 -14 -14 -13 -14 -14 -14 -14 -14 -13 -14 -13 -14
-15 -15 -15 -15 -14 -15 -15 -15 -15 -14 -14 -14 -14 -14 -14 -14 -14 -14 -14 -14 -14 -14 -14 -14 -14 -14 -14 -14 -14 -14 -14 -14 -14 -14 -14 -13 -13 -13 -13 -13 -14 -14 -14 -14
-15 -15 -15 -15 -15 -15 -15 -15 -15 -15 -15 -14 -14 -14 -14 -14 -14 -14 -15 -14 -14 -14 -14 -14 -14 -14 -14 -14 -14 -14 -15 -14 -14 -14 -14 -14 -13 -14 -14 -14 -14 -14 -14 -14
-15 -15 -15 -15 -15 -15 -15 -15 -15 -14 -15 -15 -15 -15 -15 -14 -14 -14 -15 -15 -15 -15 -15 -14 -14 -14 -14 -14 -14 -14 -14 -15 -14 -14 -14 -14 -13 -15 -15 -15 -15 -15 -15 -15
-15 -15 -15 -15 -15 -15 -15 -15 -15 -15 -15 -15 -15 -15 -15 -15 -15 -15 -15 -14 -14 -15 -15 -15 -15 -14 -14 -14 -14 -15 -14 -15 -14 -14 -14 -13 -13 -14 -14 -14 -14 -15 -15 -15
-15 -15 -15 -15 -15 -15 -15 -15 -15 -15 -15 -15 -15 -15 -15 -15 -15 -15 -14 -15 -14 -14 -14 -14 -14 -14 -14 -14 -14 -15 -15 -15 -15 -14 -14 -13 -14 -15 -14 -15 -14 -16 -15 -15
-16 -16 -16 -16 -16 -16 -16 -16 -16 -16 -15 -15 -16 -15 -15 -15 -15 -15 -15 -15 -15 -15 -14 -14 -14 -14 -14 -14 -14 -14 -15 -16 -15 -15 -15 -13 -13 -14 -15 -15 -14 -15 -15 -15
-16 -16 -16 -16 -16 -16 -16 -16 -16 -16 -16 -15 -16 -16 -16 -15 -15 -15 -14 -14 -14 -15 -14 -14 -14 -14 -14 -14 -14 -14 -15 -15 -15 -15 -15 -13 -14 -15 -16 -16 -16 -16 -16 -16
-16 -16 -16 -16 -16 -16 -16 -16 -16 -16 -15 -15 -16 -16 -15 -15 -15 -15 -15 -15 -15 -15 -15 -15 -15 -14 -15 -14 -15 -15 -15 -15 -15 -16 -16 -15 -16 -16 -17 -17 -16 -16 -16 -16
-16 -16 -16 -16 -16 -16 -16 -16 -16 -16 -15 -15 -15 -16 -16 -16 -16 -16 -16 -16 -16 -16 -16 -16 -16 -15 -15 -15 -15 -15 -16 -16 -17 -16 -16 -17 -17 -17 -18 -18 -17 -17 -17 -17
-17 -17 -17 -17 -17 -17 -17 -17 -17 -17 -16 -16 -16 -16 -17 -16 -16 -16 -16 -16 -17 -16 -17 -16 -16 -16 -16 -16 -16 -16 -17 -17 -17 -17 -17 -19 -18 -19 -18 -19 -18 -17 -18 -18
-18 -18 -18 -17 -17 -17 -17 -17 -17 -17 -17 -16 -16 -17 -17 -17 -17 -17 -17 -17 -17 -18 -18 -18 -17 -17 -18 -17 -17 -18 -18 -18 -19 -18 -17 -19 -17 -19 -19 -18 -19 -19 -19 -19
-20 -20 -20 -19 -19 -19 -19 -19 -19 -18 -18 -17 -17 -18 -19 -18 -18 -18 -18 -18 -18 -19 -18 -18 -18 -18 -19 -18 -18 -17 -20 -19 -20 -19 -19 -19 -18 -19 -20 -19 -20 -20 -21 -21
-20 -20 -20 -20 -20 -20 -20 -20 -19 -19 -19 -19 -18 -18 -19 -19 -19 -19 -19 -19 -19 -19 -19 -18 -18 -19 -20 -20 -20 -20 -20 -19 -20 -20 -20 -21 -20 -21 -21 -21 -21 -22 -22 -22
-20 -20 -20 -20 -20 -20 -20 -20 -20 -20 -20 -20 -19 -18 -18 -19 -19 -20 -20 -20 -20 -20 -20 -20 -20 -21 -23 -23 -22 -20 -20 -21 -21 -22 -22 -23 -23 -23 -23 -24 -24 -23 -24 -26
-23 -23 -22 -22 -22 -22 -22 -22 -22 -22 -22 -22 -21 -20 -20 -21 -21 -21 -21 -21 -21 -22 -22 -22 -23 -23 -24 -24 -23 -23 -23 -23 -23 -24 -24 -24 -25 -25 -25 -25 -25 -25 -26 -26
-24 -24 -23 -23 -23 -23 -23 -23 -23 -23 -23 -23 -22 -23 -23 -22 -22 -22 -23 -23 -23 -24 -24 -24 -25 -25 -25 -25 -26 -26 -26 -26 -25 -25 -25 -25 -26 -27 -26 -26 -26 -27 -27 -27
-25 -25 -25 -25 -25 -25 -25 -25 -25 -25 -25 -25 -25 -25 -25 -25 -24 -24 -25 -25 -25 -25 -25 -26 -26 -27 -27 -27 -27 -28 -28 -28 -29 -29 -29 -29 -29 -29 -28 -28 -28 -28 -28 -29
-28 -28 -28 -27 -27 -27 -27 -27 -27 -27 -26 -27 -26 -26 -26 -26 -26 -26 -26 -27 -27 -27 -27 -27 -27 -28 -29 -30 -30 -30 -30 -30 -30 -30 -30 -30 -30 -30 -29 -29 -29 -30 -30 -30
-29 -29 -29 -29 -28 -28 -28 -28 -28 -28 -28 -28 -28 -27 -27 -28 -28 -27 -27 -27 -28 -27 -28 -28 -29 -30 -31 -31 -31 -31 -31 -31 -31 -31 -31 -31 -31 -31 -31 -31 -30 -30 -30 -30
-30 -30 -30 -30 -30 -30 -29 -29 -29 -29 -29 -29 -29 -28 -28 -28 -28 -28 -28 -28 -28 -29 -29 -29 -30 -32 -31 -31 -31 -31 -32 -32 -32 -32 -32 -32 -32 -32 -32 -32 -32 -32 -32 -31
-31 -31 -31 -31 -30 -30 -30 -30 -30 -29 -29 -29 -29 -29 -29 -30 -30 -30 -30 -30 -30 -30 -30 -31 -32 -31 -32 -31 -31 -32 -33 -34 -34 -34 -34 -33 -34 -34 -34 -34 -34 -34 -33 -33
-32 -32 -32 -31 -31 -31 -30 -30 -30 -30 -30 -30 -31 -31 -31 -31 -31 -31 -31 -31 -31 -31 -32 -33 -32 -32 -33 -33 -34 -34 -35 -35 -35 -35 -35 -34 -34 -34 -34 -34 -34 -34 -34 -34
-33 -32 -32 -31 -31 -31 -31 -31 -31 -30 -31 -31 -32 -31 -31 -31 -31 -31 -32 -32 -33 -34 -33 -33 -32 -34 -35 -35 -35 -35 -35 -35 -35 -35 -35 -35 -35 -35 -35 -35 -35 -35 -35 -34
-33 -32 -32 -32 -32 -33 -33 -32 -32 -32 -32 -32 -32 -32 -32 -32 -32 -33 -33 -33 -33 -33 -33 -34 -35 -35 -35 -35 -35 -35 -35 -35 -35 -35 -35 -35 -35 -35 -35 -35 -35 -35 -35 -35
Height
5786 5784 5783 5782 5779 5778 5777 5775 5774 5773 5772 5772 5770 5769 5767 5766 5766 5765 5765 5765 5765 5765 5765 5764 5763 5763 5763 5762 5761 5761 5760 5759 5759 5758 5757 5756 5755 5754 5752 5749 5749 5745 5741 5745
5784 5783 5782 5781 5780 5779 5778 5777 5776 5774 5773 5773 5772 5771 5770 5769 5768 5766 5765 5764 5763 5762 5761 5762 5761 5760 5759 5758 5758 5758 5756 5756 5754 5754 5754 5752 5750 5748 5746 5743 5741 5741 5735 5739
5780 5780 5780 5779 5778 5777 5777 5776 5775 5774 5773 5772 5771 5770 5769 5768 5767 5766 5764 5763 5761 5760 5759 5758 5757 5757 5756 5755 5754 5753 5752 5751 5749 5748 5746 5744 5743 5741 5738 5735 5734 5729 5732 5727
5775 5775 5775 5774 5774 5773 5774 5773 5772 5771 5770 5770 5769 5768 5767 5765 5765 5763 5761 5761 5759 5758 5757 5755 5754 5752 5750 5749 5747 5746 5744 5743 5741 5739 5737 5735 5734 5733 5731 5727 5727 5718 5726 5715
5767 5768 5768 5768 5768 5768 5767 5767 5766 5766 5765 5764 5763 5763 5761 5760 5759 5758 5757 5755 5754 5752 5750 5749 5748 5747 5746 5745 5743 5739 5737 5735 5733 5732 5729 5724 5720 5724 5720 5717 5717 5710 5710 5706
5758 5759 5759 5760 5760 5760 5759 5759 5758 5757 5758 5756 5756 5756 5755 5753 5752 5753 5749 5747 5745 5744 5742 5740 5739 5738 5736 5734 5734 5732 5730 5727 5722 5719 5721 5715 5708 5721 5715 5711 5708 5703 5699 5698
5747 5747 5749 5749 5749 5750 5750 5750 5750 5748 5748 5747 5746 5746 5745 5744 5743 5741 5741 5738 5736 5736 5733 5729 5728 5726 5725 5724 5722 5720 5718 5716 5710 5705 5706 5700 5704 5703 5702 5702 5700 5694 5689 5688
5734 5736 5736 5737 5738 5738 5738 5738 5738 5737 5735 5737 5737 5735 5734 5733 5732 5731 5729 5729 5725 5723 5722 5719 5716 5715 5714 5713 5709 5709 5706 5703 5699 5693 5692 5690 5690 5686 5683 5686 5684 5682 5680 5675
5719 5720 5722 5723 5724 5725 5724 5724 5724 5723 5722 5724 5723 5722 5721 5719 5717 5716 5716 5714 5712 5710 5708 5707 5702 5701 5701 5698 5696 5697 5695 5692 5686 5682 5678 5676 5673 5669 5668 5667 5666 5665 5660 5657
5702 5703 5705 5706 5707 5709 5710 5709 5709 5709 5707 5707 5708 5707 5706 5705 5703 5702 5701 5700 5699 5696 5695 5691 5689 5689 5688 5684 5681 5680 5678 5675 5672 5668 5664 5665 5657 5655 5653 5653 5653 5643 5639 5637
5684 5686 5687 5688 5689 5690 5691 5692 5692 5693 5691 5690 5690 5690 5689 5688 5688 5687 5686 5685 5684 5682 5679 5677 5675 5672 5669 5666 5667 5663 5661 5657 5655 5651 5643 5642 5642 5639 5639 5634 5631 5627 5624 5618
5666 5667 5668 5669 5670 5671 5672 5673 5672 5672 5673 5676 5673 5672 5672 5671 5670 5670 5668 5668 5665 5662 5661 5661 5658 5656 5651 5650 5649 5644 5642 5639 5636 5630 5628 5624 5625 5618 5612 5610 5610 5607 5602 5599
5648 5650 5651 5651 5652 5653 5654 5654 5654 5654 5654 5656 5655 5655 5655 5652 5652 5650 5650 5648 5645 5644 5641 5639 5636 5633 5634 5632 5633 5628 5625 5621 5614 5611 5617 5607 5606 5600 5594 5590 5588 5586 5583 5579
5628 5631 5632 5633 5634 5634 5635 5635 5636 5635 5634 5636 5640 5635 5634 5633 5633 5630 5629 5629 5627 5625 5622 5619 5616 5615 5614 5613 5613 5611 5607 5603 5595 5591 5591 5582 5589 5577 5573 5572 5567 5566 5562 5559
5609 5610 5613 5615 5616 5616 5616 5617 5616 5615 5615 5618 5619 5620 5617 5616 5614 5612 5611 5610 5609 5607 5604 5602 5600 5597 5592 5594 5592 5595 5588 5585 5573 5568 5568 5559 5563 5556 5549 5549 5546 5544 5540 5537
5592 5594 5595 5596 5598 5599 5599 5599 5600 5598 5596 5596 5599 5603 5601 5599 5596 5594 5592 5592 5589 5587 5584 5583 5581 5577 5571 5567 5572 5577 5566 5561 5552 5548 5548 5542 5536 5531 5526 5523 5522 5518 5515 5511
5572 5573 5575 5577 5578 5580 5579 5580 5582 5581 5578 5574 5578 5581 5583 5579 5577 5577 5575 5571 5569 5566 5563 5562 5560 5558 5549 5542 5543 5547 5544 5540 5535 5530 5528 5517 5511 5507 5504 5501 5499 5494 5494 5488
5551 5552 5554 5555 5556 5557 5558 5558 5558 5558 5557 5555 5557 5560 5561 5558 5553 5551 5550 5550 5550 5549 5546 5545 5544 5539 5529 5520 5519 5521 5518 5516 5511 5506 5503 5497 5490 5486 5483 5481 5478 5475 5472 5468
5534 5535 5536 5537 5537 5538 5537 5538 5538 5537 5538 5533 5536 5538 5537 5536 5533 5532 5530 5526 5526 5524 5525 5524 5519 5518 5507 5503 5503 5499 5497 5495 5492 5487 5483 5478 5473 5467 5464 5461 5457 5455 5451 5448
5515 5517 5518 5519 5520 5519 5520 5519 5520 5518 5516 5516 5518 5516 5516 5517 5516 5515 5515 5510 5509 5506 5506 5501 5499 5491 5489 5485 5482 5478 5475 5474 5470 5465 5463 5459 5455 5451 5446 5441 5439 5435 5432 5429
5498 5500 5500 5502 5502 5502 5501 5502 5505 5501 5500 5500 5499 5499 5500 5501 5502 5500 5497 5494 5491 5489 5487 5484 5480 5477 5474 5469 5468 5463 5459 5456 5453 5450 5446 5442 5438 5433 5429 5426 5420 5417 5415 5412
5484 5486 5485 5486 5485 5485 5486 5488 5489 5488 5484 5485 5484 5486 5485 5486 5488 5484 5481 5480 5478 5478 5471 5468 5463 5462 5456 5453 5451 5448 5445 5440 5438 5434 5430 5425 5420 5415 5411 5408 5404 5399 5397 5393
5471 5471 5470 5473 5469 5471 5473 5472 5474 5473 5471 5474 5472 5473 5473 5472 5472 5470 5467 5465 5465 5461 5459 5456 5450 5444 5441 5441 5438 5436 5431 5425 5421 5417 5413 5409 5406 5401 5396 5390 5387 5381 5379 5377
5460 5459 5458 5460 5458 5459 5461 5461 5462 5462 5461 5462 5461 5461 5460 5457 5457 5455 5453 5452 5450 5448 5445 5441 5431 5431 5428 5425 5422 5420 5417 5412 5406 5402 5397 5392 5388 5383 5380 5375 5370 5365 5362 5359
5450 5450 5450 5450 5450 5450 5450 5452 5452 5452 5451 5451 5450 5449 5448 5447 5445 5444 5442 5439 5437 5435 5431 5426 5421 5418 5415 5413 5409 5404 5400 5396 5392 5388 5384 5379 5374 5368 5362 5359 5353 5347 5340 5335
5443 5443 5443 5442 5441 5441 5441 5442 5442 5441 5441 5440 5439 5438 5437 5436 5433 5434 5430 5427 5425 5422 5417 5413 5408 5407 5405 5400 5394 5389 5384 5380 5376 5372 5367 5362 5357 5351 5347 5344 5340 5333 5327 5322
5437 5437 5435 5434 5435 5435 5434 5433 5433 5433 5433 5432 5430 5429 5426 5424 5423 5421 5417 5415 5412 5406 5406 5405 5401 5395 5390 5385 5381 5377 5372 5368 5364 5359 5354 5349 5344 5339 5334 5330 5327 5321 5317 5312
Wind_Speed
6 7 8 9 11 12 13 15 16 17 17 16 13 9 8 7 7 6 4 3 3 5 7 8 8 10 12 13 15 16 18 19 20 21 22 22 23 25 27 29 27 29 31 26
11 10 9 8 8 10 10 10 9 9 11 13 14 14 13 12 9 6 5 6 7 7 8 9 11 13 14 15 16 18 20 20 21 21 23 23 25 27 28 30 30 29 35 29
19 17 17 16 14 13 12 13 14 12 10 9 10 12 14 15 16 17 16 16 14 14 15 14 15 16 18 19 20 21 23 22 25 26 28 29 29 31 33 35 35 38 34 36
28 26 25 23 22 21 21 21 19 18 19 18 18 17 16 16 16 18 21 21 22 22 22 22 23 22 23 24 24 26 28 27 29 31 34 35 35 35 36 38 36 44 35 44
33 32 32 31 30 29 28 28 28 27 28 28 26 25 25 25 25 24 24 25 25 27 28 28 27 28 28 27 28 29 30 32 33 33 35 39 40 33 35 36 35 42 40 43
39 39 38 38 37 36 35 34 34 35 34 35 36 35 33 33 33 31 33 32 30 30 32 33 34 35 35 34 34 36 38 39 41 41 37 43 50 34 38 40 41 43 43 40
46 45 45 45 43 43 43 43 42 42 40 40 41 42 42 42 42 42 39 40 41 40 39 39 39 39 39 40 41 40 41 41 46 49 47 51 49 46 44 40 39 42 47 44
52 51 50 50 50 49 49 50 50 50 51 49 47 48 48 48 49 49 49 48 47 46 45 47 47 46 45 42 44 44 45 47 49 52 53 54 53 54 55 49 49 46 47 48
61 58 58 58 58 59 59 59 60 59 60 57 57 56 56 55 53 51 50 51 50 48 47 47 52 53 50 51 51 49 48 48 52 54 57 59 60 61 58 56 57 55 58 58
68 67 67 65 64 63 63 63 63 64 64 64 62 59 57 53 51 50 50 49 50 50 50 51 50 51 52 56 57 56 56 57 59 61 63 60 64 63 63 61 60 63 65 65
73 74 74 73 72 70 69 68 68 68 66 65 64 61 59 57 55 54 55 53 53 53 55 56 57 56 56 59 59 61 63 65 65 65 67 68 66 67 65 67 67 68 68 69
67 68 70 71 71 71 72 69 67 64 62 60 61 59 59 59 59 58 60 59 60 59 58 58 59 61 63 62 62 63 64 64 64 68 67 66 63 65 68 68 68 69 72 74
67 66 65 65 64 63 64 64 64 65 66 64 64 63 62 63 62 62 61 60 58 60 59 60 61 62 60 60 59 60 61 61 65 67 62 64 66 68 71 71 72 72 71 71
66 67 67 66 67 66 66 66 66 66 68 67 63 61 61 60 59 57 57 57 55 53 54 57 58 59 59 59 59 58 59 61 65 68 68 71 69 71 72 73 75 75 75 74
59 58 59 59 60 59 58 59 58 59 60 61 61 54 53 53 52 53 52 52 53 54 57 59 60 61 63 62 63 62 63 64 70 74 74 78 77 79 80 81 80 80 79 78
62 61 60 58 58 59 58 58 57 57 58 59 58 56 53 54 56 57 57 58 60 61 63 65 66 67 69 70 68 65 70 72 77 80 80 81 83 83 85 86 84 84 82 82
67 65 63 63 63 62 62 61 60 59 60 61 60 60 60 60 60 59 61 63 65 66 68 68 67 68 70 72 74 75 76 77 77 80 80 83 85 86 85 84 81 84 76 73
65 66 66 65 65 63 61 61 60 60 59 59 60 62 63 63 66 67 67 67 67 67 67 68 68 69 71 74 78 77 77 78 79 80 80 80 80 80 79 77 75 72 67 67
55 57 59 59 60 61 62 61 61 62 63 64 64 63 62 65 67 68 69 69 69 69 67 65 64 63 65 67 64 64 64 65 66 69 70 69 67 70 69 66 65 68 70 70
55 56 55 53 53 55 54 55 56 57 57 60 59 58 60 61 62 63 62 62 60 60 59 57 53 53 57 57 56 56 54 54 54 56 59 59 62 63 66 66 70 72 75 65
51 51 52 54 54 54 54 53 53 54 54 54 55 55 54 54 52 51 51 50 49 49 51 52 53 54 49 46 48 48 50 54 55 55 56 56 57 60 62 64 63 63 63 64
47 48 49 48 48 48 47 46 47 47 47 47 47 46 45 45 43 42 43 44 47 48 49 51 52 47 46 49 46 48 49 50 52 55 55 58 60 63 66 69 69 68 67 64
36 38 38 39 40 40 40 40 40 40 40 40 41 42 41 41 42 41 42 44 45 45 44 45 46 41 48 50 52 55 57 56 59 61 61 58 58 59 61 63 65 67 64 65
33 32 31 32 32 33 33 34 35 37 37 37 37 37 37 37 38 38 38 39 40 42 43 41 42 47 46 50 51 50 49 50 54 56 60 64 65 65 65 66 68 71 73 74
25 25 26 26 27 29 31 33 32 31 32 33 33 34 34 34 34 34 37 40 41 41 36 38 44 46 46 45 47 50 52 55 56 57 55 57 59 61 61 59 61 62 63 62
17 18 21 25 26 26 27 27 29 30 30 30 30 30 30 31 35 35 36 37 35 30 38 43 48 44 46 48 52 56 56 56 57 58 56 52 48 46 45 43 41 43 45 47
15 18 22 23 22 21 24 26 26 25 26 27 28 29 32 33 34 33 34 37 38 42 41 40 40 41 42 44 46 46 46 44 43 43 43 46 46 46 45 43 41 42 43 42
Wind_Direction
346 14 17 22 33 39 33 27 22 19 17 18 20 29 35 41 43 46 54 48 329 296 269 261 269 273 272 271 270 268 267 267 267 269 270 271 273 272 273 275 280 284 292 299
291 298 306 319 336 350 358 3 10 12 7 6 358 352 348 349 345 337 321 313 303 292 294 294 286 279 275 274 273 274 274 276 277 274 274 273 272 275 278 281 284 290 287 303
272 278 283 288 291 297 304 314 319 321 325 326 328 329 326 324 320 319 318 314 303 295 286 278 273 276 276 276 275 275 273 273 273 275 274 272 273 275 280 283 288 288 292 291
265 269 271 276 280 285 289 293 293 294 298 301 304 302 299 300 301 303 303 302 299 295 295 291 287 281 276 273 274 275 275 274 275 276 279 281 281 282 284 287 289 286 295 288
264 265 268 269 272 275 278 282 286 290 294 293 293 294 297 298 297 297 296 294 290 288 288 285 283 283 284 281 279 280 279 280 277 274 276 277 274 272 277 282 283 288 289 289
264 266 268 271 273 274 275 276 279 283 287 289 292 293 293 292 293 293 294 294 293 291 287 283 282 282 282 283 283 284 285 286 284 280 279 277 277 285 282 284 289 287 289 290
262 264 268 270 271 274 277 279 280 280 279 280 284 288 290 291 293 293 292 291 291 290 288 285 283 281 281 282 281 281 284 285 284 285 285 283 290 290 286 284 287 286 285 291
260 263 265 267 270 273 274 276 278 279 280 282 283 284 287 288 290 291 289 288 286 287 286 285 284 284 282 281 280 281 283 285 287 286 287 289 288 287 288 293 289 286 290 288
260 260 262 264 266 268 271 273 275 277 279 280 282 284 285 284 285 286 288 288 287 285 283 282 284 285 285 283 281 280 280 281 282 284 285 285 287 288 292 289 285 292 286 284
261 262 262 262 263 265 267 270 273 276 278 282 284 284 283 283 280 281 282 283 283 283 284 281 281 282 282 283 283 283 281 281 281 281 282 280 281 282 281 282 283 282 283 284
265 266 266 266 266 267 268 270 272 273 277 279 280 280 280 280 280 281 284 283 282 282 279 279 280 279 278 279 281 281 282 282 283 283 281 281 283 282 283 280 279 279 279 279
266 267 268 268 269 269 270 272 273 273 274 277 278 279 279 279 279 280 281 283 283 281 279 279 278 278 277 279 279 278 279 279 279 279 281 280 282 280 280 280 280 281 282 283
264 265 265 265 267 269 270 271 272 273 275 275 277 279 279 280 280 280 281 280 278 279 278 277 276 275 276 277 277 278 278 278 277 278 282 279 279 279 279 280 280 280 280 280
264 265 265 266 267 268 270 271 273 274 275 275 277 280 280 280 279 279 279 278 278 277 276 276 276 278 278 278 279 279 277 277 281 280 279 279 279 277 276 277 278 279 278 279
268 269 270 271 273 273 274 275 276 277 278 279 278 279 280 279 277 278 279 279 278 277 277 279 280 280 277 279 279 283 276 276 275 276 276 277 278 278 278 278 278 279 279 278
266 268 269 269 271 272 272 272 274 275 275 276 277 279 276 273 276 278 277 277 278 277 278 279 280 279 277 276 276 275 274 275 275 277 279 277 276 277 277 277 278 279 280 281
267 267 267 268 269 271 271 272 272 269 270 272 275 276 278 277 273 270 270 270 271 272 272 274 275 275 276 276 275 274 273 273 273 273 274 276 278 278 279 281 284 283 286 284
266 268 269 270 271 271 270 271 271 271 268 266 268 274 273 272 273 272 271 268 268 267 267 269 272 273 274 274 275 277 277 276 276 278 278 279 282 282 284 285 285 285 285 285
259 259 259 259 259 260 260 261 260 261 262 261 264 263 263 265 265 266 269 272 274 275 277 277 276 276 275 277 278 279 279 280 280 280 280 281 283 284 284 282 281 283 285 284
262 262 261 261 261 260 260 262 262 262 263 264 265 267 268 269 269 270 273 275 277 279 279 280 282 282 284 286 288 288 286 285 285 277 280 277 280 277 276 278 280 280 282 279
264 263 263 263 264 266 266 267 268 268 268 269 269 269 271 273 274 275 276 277 277 278 280 284 285 284 284 281 279 276 273 278 282 281 281 280 279 279 278 279 278 277 275 273
269 270 270 269 268 267 267 267 268 267 267 268 270 273 273 274 275 275 275 275 277 282 284 286 286 284 277 279 279 275 276 273 270 269 271 271 272 273 274 276 273 271 274 271
265 264 264 265 262 263 263 262 262 263 267 269 271 273 274 276 276 275 277 279 280 281 282 284 286 279 282 282 281 276 268 269 272 274 277 274 269 268 272 274 278 282 278 276
262 263 263 260 263 261 261 261 263 266 269 271 272 273 272 274 274 276 280 282 283 285 286 287 282 283 282 283 284 285 285 284 285 286 287 289 291 293 293 293 294 294 293 293
266 268 269 268 266 266 267 269 267 266 266 266 265 265 267 270 273 278 282 284 286 289 289 283 285 286 286 283 284 288 289 290 292 294 294 295 295 294 293 293 293 294 295 294
268 269 268 265 265 266 269 271 270 269 269 271 271 273 275 275 277 282 287 286 286 284 280 280 283 282 285 289 289 290 291 292 293 294 297 299 299 298 299 302 301 300 300 300
268 262 271 274 278 278 275 273 276 279 278 277 280 281 281 283 286 288 286 286 286 281 288 294 294 292 288 289 292 296 299 301 301 300 299 299 300 301 301 301 300 297 298 303